• In Hungary
  • List of Countries
  • For 7 days
  • Water Temperature
  • Satellite Maps
  • Weather Map
  • News
  • Weather Widgets
  • user-avatar
    Login

    Hourly Weather Dajny

    Today, 22 September, Saturday

    Time Temperature Precipitation Wind Pressure Humidity
    00:00 +16°C° 1.8 mm 7 mps 745 mmHg 79%
    01:00 +14°C° 1.8 mm 6 mps 745 mmHg 84%
    02:00 +13°C° 0.3 mm 6 mps 746 mmHg 82%
    03:00 +13°C° 0.3 mm 6 mps 747 mmHg 79%
    04:00 +12°C° 0.3 mm 5 mps 747 mmHg 76%
    05:00 +11°C° 0 mm 6 mps 748 mmHg 75%
    06:00 +11°C° 0 mm 6 mps 748 mmHg 74%
    07:00 +10°C° 0 mm 6 mps 749 mmHg 72%
    08:00 +11°C° 0 mm 7 mps 749 mmHg 68%
    09:00 +12°C° 0 mm 7 mps 749 mmHg 63%
    10:00 +13°C° 0 mm 8 mps 749 mmHg 59%
    11:00 +15°C° 0.1 mm 8 mps 750 mmHg 58%
    12:00 +15°C° 0.1 mm 7 mps 750 mmHg 57%
    13:00 +15°C° 0.1 mm 7 mps 750 mmHg 55%
    14:00 +15°C° 0.1 mm 7 mps 750 mmHg 56%
    15:00 +15°C° 0.1 mm 6 mps 750 mmHg 57%
    16:00 +15°C° 0.1 mm 6 mps 750 mmHg 57%
    17:00 +14°C° 0.1 mm 5 mps 750 mmHg 62%
    18:00 +13°C° 0.1 mm 5 mps 750 mmHg 66%
    19:00 +12°C° 0.1 mm 4 mps 750 mmHg 71%
    20:00 +10°C° 0 mm 5 mps 750 mmHg 71%
    21:00 +10°C° 0 mm 5 mps 750 mmHg 71%
    22:00 +10°C° 0 mm 5 mps 750 mmHg 72%
    23:00 +10°C° 0 mm 5 mps 749 mmHg 72%

    Tomorrow, 23 September, Sunday

    Time Temperature Precipitation Wind Pressure Humidity
    00:00 +10°C° 0 mm 5 mps 749 mmHg 72%
    01:00 +9°C° 0 mm 5 mps 749 mmHg 73%
    02:00 +9°C° 0 mm 6 mps 749 mmHg 74%
    03:00 +8°C° 0 mm 6 mps 749 mmHg 75%
    04:00 +8°C° 0 mm 6 mps 749 mmHg 76%
    05:00 +8°C° 0 mm 6 mps 749 mmHg 75%
    06:00 +8°C° 0 mm 6 mps 749 mmHg 75%
    07:00 +9°C° 0 mm 7 mps 749 mmHg 74%
    08:00 +10°C° 0 mm 7 mps 749 mmHg 69%
    09:00 +11°C° 0 mm 7 mps 749 mmHg 65%
    10:00 +12°C° 0 mm 7 mps 749 mmHg 60%
    11:00 +14°C° 0 mm 7 mps 749 mmHg 58%
    12:00 +15°C° 0 mm 7 mps 749 mmHg 55%
    13:00 +15°C° 0 mm 7 mps 749 mmHg 53%
    14:00 +15°C° 0 mm 6 mps 748 mmHg 54%
    15:00 +15°C° 0 mm 5 mps 748 mmHg 55%
    16:00 +15°C° 0 mm 5 mps 748 mmHg 56%
    17:00 +13°C° 0 mm 4 mps 747 mmHg 59%
    18:00 +12°C° 0 mm 3 mps 747 mmHg 63%
    19:00 +12°C° 0 mm 2 mps 746 mmHg 66%
    20:00 +12°C° 0 mm 2 mps 746 mmHg 67%
    21:00 +12°C° 0 mm 2 mps 745 mmHg 68%
    22:00 +12°C° 0 mm 1 mps 745 mmHg 69%
    23:00 +11°C° 0.7 mm 1 mps 744 mmHg 75%

    Day after tomorrow, 24 September, Monday

    Time Temperature Precipitation Wind Pressure Humidity
    00:00 +10°C° 0.7 mm 2 mps 743 mmHg 80%
    01:00 +9°C° 0.7 mm 2 mps 742 mmHg 85%
    02:00 +9°C° 1.2 mm 2 mps 742 mmHg 87%
    03:00 +9°C° 1.2 mm 3 mps 742 mmHg 88%
    04:00 +8°C° 1.2 mm 4 mps 742 mmHg 90%
    05:00 +8°C° 0.5 mm 4 mps 742 mmHg 87%
    06:00 +9°C° 0.5 mm 5 mps 743 mmHg 84%
    07:00 +9°C° 0.5 mm 6 mps 744 mmHg 81%
    08:00 +10°C° 0.2 mm 7 mps 744 mmHg 74%
    09:00 +11°C° 0.2 mm 8 mps 745 mmHg 66%
    10:00 +12°C° 0.2 mm 9 mps 746 mmHg 58%
    11:00 +12°C° 0.4 mm 9 mps 746 mmHg 59%
    12:00 +11°C° 0.4 mm 9 mps 747 mmHg 59%
    13:00 +11°C° 0.4 mm 9 mps 747 mmHg 59%
    14:00 +11°C° 0.4 mm 9 mps 748 mmHg 61%
    15:00 +10°C° 0.4 mm 9 mps 749 mmHg 62%
    16:00 +10°C° 0.4 mm 9 mps 750 mmHg 63%
    17:00 +9°C° 0.1 mm 8 mps 751 mmHg 65%
    18:00 +8°C° 0.1 mm 7 mps 752 mmHg 67%
    19:00 +7°C° 0.1 mm 6 mps 753 mmHg 69%
    20:00 +7°C° 0.2 mm 6 mps 753 mmHg 70%
    21:00 +6°C° 0.2 mm 5 mps 754 mmHg 70%
    22:00 +6°C° 0.2 mm 5 mps 755 mmHg 71%
    23:00 +6°C° 0.2 mm 5 mps 755 mmHg 71%

    25 September, Tuesday

    Time Temperature Precipitation Wind Pressure Humidity
    00:00 +6°C° 0.2 mm 5 mps 755 mmHg 72%
    01:00 +6°C° 0.2 mm 5 mps 756 mmHg 72%
    02:00 +6°C° 0.2 mm 5 mps 756 mmHg 72%
    03:00 +5°C° 0.2 mm 5 mps 757 mmHg 71%
    04:00 +4°C° 0.2 mm 6 mps 757 mmHg 70%
    05:00 +5°C° 0.2 mm 6 mps 757 mmHg 69%
    06:00 +5°C° 0.2 mm 6 mps 758 mmHg 67%
    07:00 +5°C° 0.2 mm 6 mps 758 mmHg 65%
    08:00 +8°C° 0 mm 6 mps 758 mmHg 59%
    09:00 +10°C° 0 mm 7 mps 759 mmHg 53%
    10:00 +11°C° 0 mm 8 mps 759 mmHg 46%
    11:00 +11°C° 0.1 mm 8 mps 758 mmHg 47%
    12:00 +12°C° 0.1 mm 8 mps 758 mmHg 48%
    13:00 +12°C° 0.1 mm 9 mps 757 mmHg 49%
    14:00 +11°C° 0.4 mm 9 mps 756 mmHg 56%
    15:00 +10°C° 0.4 mm 9 mps 755 mmHg 63%
    16:00 +8°C° 0.4 mm 9 mps 754 mmHg 70%
    17:00 +8°C° 2.2 mm 9 mps 754 mmHg 75%
    18:00 +7°C° 2.2 mm 9 mps 753 mmHg 80%
    19:00 +7°C° 2.2 mm 9 mps 752 mmHg 85%
    20:00 +7°C° 0.4 mm 8 mps 753 mmHg 82%
    21:00 +6°C° 0.4 mm 7 mps 753 mmHg 78%
    22:00 +7°C° 0.4 mm 6 mps 753 mmHg 75%
    23:00 +7°C° 0.3 mm 6 mps 753 mmHg 75%

    26 September, Wednesday

    Time Temperature Precipitation Wind Pressure Humidity
    00:00 +7°C° 0.3 mm 6 mps 754 mmHg 76%
    01:00 +7°C° 0.3 mm 6 mps 754 mmHg 76%
    02:00 +7°C° 0.1 mm 6 mps 754 mmHg 76%
    03:00 +7°C° 0.1 mm 6 mps 755 mmHg 76%
    04:00 +7°C° 0.1 mm 6 mps 755 mmHg 76%
    05:00 +7°C° 0 mm 6 mps 756 mmHg 75%
    06:00 +8°C° 0 mm 6 mps 756 mmHg 75%
    07:00 +8°C° 0 mm 6 mps 757 mmHg 74%
    08:00 +10°C° 0 mm 6 mps 758 mmHg 69%
    09:00 +11°C° 0 mm 6 mps 758 mmHg 64%
    10:00 +14°C° 0 mm 6 mps 759 mmHg 58%
    11:00 +14°C° 0 mm 5 mps 759 mmHg 56%
    12:00 +14°C° 0 mm 5 mps 759 mmHg 53%
    13:00 +15°C° 0 mm 5 mps 760 mmHg 50%
    14:00 +15°C° 0 mm 4 mps 759 mmHg 53%
    15:00 +14°C° 0 mm 4 mps 759 mmHg 55%
    16:00 +14°C° 0 mm 3 mps 759 mmHg 58%
    17:00 +13°C° 0 mm 4 mps 759 mmHg 62%
    18:00 +13°C° 0 mm 4 mps 759 mmHg 67%
    19:00 +12°C° 0 mm 4 mps 759 mmHg 71%
    20:00 +12°C° 0.1 mm 4 mps 759 mmHg 74%
    21:00 +12°C° 0.1 mm 5 mps 758 mmHg 78%
    22:00 +12°C° 0.1 mm 5 mps 758 mmHg 82%
    23:00 +11°C° 0.1 mm 6 mps 758 mmHg 80%

    27 September, Thursday

    Time Temperature Precipitation Wind Pressure Humidity
    00:00 +11°C° 0.1 mm 6 mps 757 mmHg 79%
    01:00 +11°C° 0.1 mm 6 mps 757 mmHg 78%
    02:00 +11°C° 0 mm 7 mps 756 mmHg 77%
    03:00 +10°C° 0 mm 7 mps 756 mmHg 77%
    04:00 +10°C° 0 mm 7 mps 755 mmHg 76%
    05:00 +10°C° 0 mm 7 mps 755 mmHg 75%
    06:00 +10°C° 0 mm 8 mps 754 mmHg 74%
    07:00 +10°C° 0 mm 8 mps 754 mmHg 73%
    08:00 +11°C° 0 mm 8 mps 754 mmHg 67%
    09:00 +12°C° 0 mm 9 mps 753 mmHg 61%
    10:00 +15°C° 0 mm 9 mps 753 mmHg 55%
    11:00 +16°C° 0 mm 9 mps 752 mmHg 52%
    12:00 +17°C° 0 mm 9 mps 752 mmHg 50%
    13:00 +17°C° 0 mm 9 mps 751 mmHg 47%
    14:00 +17°C° 0 mm 8 mps 750 mmHg 48%
    15:00 +17°C° 0 mm 7 mps 750 mmHg 49%
    16:00 +16°C° 0 mm 7 mps 749 mmHg 50%
    17:00 +16°C° 0.1 mm 7 mps 748 mmHg 51%
    18:00 +15°C° 0.1 mm 7 mps 748 mmHg 53%
    19:00 +14°C° 0.1 mm 7 mps 747 mmHg 54%
    20:00 +14°C° 0.5 mm 7 mps 747 mmHg 61%
    21:00 +12°C° 0.5 mm 8 mps 747 mmHg 68%
    22:00 +12°C° 0.5 mm 9 mps 747 mmHg 75%
    23:00 +11°C° 0.4 mm 8 mps 747 mmHg 76%
    Show more